Weather in Kulivertovo

Russia / Kostroma Oblast     59°07′12″N   42°55′19″E
temp.,
°C
wind,
m/s
gust,
m/s
humid.,
%
clouds,
%
prec.,
mm/h
press.,
hPa
HPBL,
m
5 august, thu
thu500:00+10nw22730 0.0 101622
03:00+9wnw11785 0.0 101711
06:00+11wnw127558 0.0 101884
09:00+18nnw125044 0.0 1018639
12:00+21nw22355 0.0 10172189
15:00+22nw223261 0.0 10172457
18:00+19nnw254841 0.0 1017284
21:00+13ne2263100 0.0 101831
6 august, fri
fri600:00+12ne2266100 0.0 101831
03:00+11e226997 0.0 101838
06:00+14se2963100 0.0 1018318
09:00+18sse3651100 0.0 1017722
12:00+15ese2766100 0.1 1017374
15:00+18se586598 0.1 1017817
18:00+17se476867 0.0 1017744
21:00+14ese387794 0.0 1017412
7 august, sat
sat700:00+13ese2789100 0.0 1017265
03:00+14e3985100 0.0 1017397
06:00+14ese3990100 0.0 1018510
09:00+16ese51081100 0.1 1018716
12:00+14ese41097100 2.8 1018715
15:00+13e41198100 4.4 1019558
18:00+13e41197100 0.0 1019572
21:00+13e41296100 0.1 1018525
8 august, sun
sun800:00+13ese31098100 1.1 1018433
03:00+13e41298100 2.4 1017408
06:00+13ese51297100 0.1 1017414
09:00+14ese41193100 0.1 1017414
12:00+20se4866100 0.0 1016595
15:00+25sse4651100 0.0 10161122
18:00+20e3874100 0.0 1016190
21:00+19ese41277100 0.1 1017425
9 august, mon
mon900:00+17ese2786100 0.1 1017226
03:00+15ese129923 2.2 101752
06:00+15se2698100 1.1 1016202
09:00+19sw238461 1.9 1016477
12:00+21sw24792 2.9 1016488
15:00+21wsw35835 5.2 1016708
18:00+20w36905 2.3 1016317
21:00+16nw22962 2.6 101620